ROMMA est une association bénévole à but non lucratif. Votre soutien est indispensable : ADHERER à ROMMA ou FAIRE un DON

Voiron - (38, Isère)

Voironnais (300 m)   Longitude: 05° 35' E   Latitude: 45° 23' N Station partenaire n°109
 

Détail journalier du     <<     >>

Température Precipitation Humidité Pression Vent Dir Rafale Dir. rafale Ensol.
Heure (°C) (mm) (%) (hPa) (km/h) (km/h) (min)
01:00 14.60.29210171SSE6SSE0
02:00 14.309310171SSE8SSE0
03:00 14.209310172SE10ESE0
04:00 14.209310175SE15SSE0
05:00 14.009510172SE11SE0
06:00 14.109510171SE6SE0
07:00 13.909510172SSE5SSE0
08:00 13.6095101803NO0
09:00 14.209410181S5S0
10:00 15.408810192S10SSO30
11:00 16.208810192SSO10SSO0
12:00 17.10.28310183SSE8SSE30
13:00 18.407810182SE10SSE60
14:00 19.407410173S10S30
15:00 18.907310176ENE19ENE30
16:00 17.5078101813N24N30
17:00 16.5080101910N21NNE60
18:00 15.708110195NNO18NNO0
19:00 15.308110202N15NNO0
20:00 14.408410202E18ENE0
21:00 14.108610202NNO6NNO0
22:00 14.308610204NNO15NNE0
23:00 13.608810201N11E0
minuit 12.909110201ESE6NO0

Graphique du 29-10-2019

 

Serveur OMMA